Regional Weather Roundup
Issued by NWS

Home | Current Version | Previous Version | Text Only | Print | Product List | Glossary Off
Versions: 1 2 3 4 5 6 7 8 9 10 11 12 13 14 15 16 17 18 19 20 21 22 23 24 25 26 27 28 29 30 31 32 33 34 35 36 37 38 39 40 41 42 43 44 45 46 47 48 49 50

000
ASUS43 KMPX 291910
RWRMN
WEATHER ROUNDUP FOR MINNESOTA
NATIONAL WEATHER SERVICE TWIN CITIES/CHANHASSEN MN
200 PM CDT SAT APR 29 2017


NOTE: "FAIR" INDICATES FEW OR NO CLOUDS BELOW 12,000 FEET WITH NO
SIGNIFICANT WEATHER AND/OR OBSTRUCTIONS TO VISIBILITY. N/A MEANS
CURRENT SKY AND/OR WEATHER CONDITIONS ARE NOT AVAILABLE.

MNZ060>063-068>070-292000-
   Twin Cities Metro

CITY           SKY/WX    TMP DP  RH WIND       PRES   REMARKS
TWIN CITIES    CLOUDY    53  23  31 NE16      30.27F
ST PAUL        PTSUNNY   53  25  33 NE16G22   30.29S
CRYSTAL        CLOUDY    53  23  31 NE12G20   30.27F
BLAINE         CLOUDY    54  25  32 NE12G17   30.27F
LAKEVILLE      CLOUDY    50  27  40 NE14      30.26S
EDEN PRAIRIE   CLOUDY    53  23  31 NE14G22   30.26S
SOUTH ST PAUL  CLOUDY    52  23  32 E13G18    30.27S
LAKE ELMO      FAIR      52  27  37 NE14G20   30.28S
$$
MNZ001>005-007-008-013>017-022>024-027-028-292000-
   Northwest Minnesota

CITY           SKY/WX    TMP DP  RH WIND       PRES   REMARKS
BEMIDJI        SUNNY     52  19  27 E6        30.30F
HALLOCK        SUNNY     55  16  21 S3        30.29F
ROSEAU         SUNNY     55  21  26 W3        30.31F
WARROAD        SUNNY     48  28  46 NE8       30.32F
THIEF RVR FALL SUNNY     53  14  21 NE6       30.31F
CROOKSTON      SUNNY     54  19  26 W7        30.31F
FOSSTON        SUNNY     54  27  35 CALM      30.31F
DETROIT LAKES  SUNNY     52  23  32 NW7       30.31F
MOORHEAD       SUNNY     55  21  26 W3        30.32S
PARK RAPIDS    SUNNY     55  19  24 VRB5      30.29F
MAHNOMEN       FAIR      52  25  35 W3        30.30F
$$
MNZ006-009>011-018-025>026-292000-
   North Central Minnesota

CITY           SKY/WX    TMP DP  RH WIND       PRES   REMARKS
BAUDETTE       SUNNY     55  13  18 N3        30.31F
FLAG ISLAND    SUNNY     46  16  29 SE8       30.33S
INTL FALLS     SUNNY     52  17  25 E5        30.32S
WASKISH        PTSUNNY   52  27  37 W10       30.31F
BIG FORK       SUNNY     55  19  24 CALM      30.30F
LONGVILLE      SUNNY     54  21  28 NW5       30.30F
GRAND RAPIDS   SUNNY     52  18  26 VRB5      30.32F
CRANE LAKE     SUNNY     48   7  18 N3        30.35S
ORR            SUNNY     54  10  17 NW5       30.30F
COOK           MOSUNNY   50  16  25 NW3       30.33F
WALKER         FAIR      50  17  27 E7        30.30F
$$
MNZ012-019>021-037-292000-
   Northeast Minnesota

CITY           SKY/WX    TMP DP  RH WIND       PRES   REMARKS
DULUTH         SUNNY     46  20  35 SE13      30.33R
ELY            SUNNY     46   7  19 E5        30.33R
HIBBING        SUNNY     50  16  25 VRB3      30.31S
EVELETH        SUNNY     53   3  13 NE6       30.33S
DULUTH HARBOR  SUNNY     43  36  75 N7        30.37S
TWO HARBORS    SUNNY     48  28  46 E13       30.34F
SILVER BAY     SUNNY     45  25  45 E8        30.36R
GRAND MARAIS     N/A     43  32  65 W7        30.39R
G MARAIS ARPRT SUNNY     43  16  33 S9        30.34R
$$
MNZ029>031-032-039>041-046>048-054>057-064-292000-
   West Central Minnesota

CITY           SKY/WX    TMP DP  RH WIND       PRES   REMARKS
FERGUS FALLS   MOSUNNY   54  27  35 N5        30.30S
WHEATON        CLOUDY    54  18  24 E3        30.32R
MORRIS         MOSUNNY   55  25  30 NE10      30.29R
ALEXANDRIA     SUNNY     53  23  31 N9        30.30F
ELBOW LAKE     FAIR      51  24  33 N7        30.31R
WADENA         SUNNY     54  27  35 N10       30.29F
GLENWOOD       SUNNY     54  23  30 NE15      30.30R
APPLETON       PTSUNNY   55  19  24 NE6       30.29S
BENSON         MOSUNNY   55  10  16 E9        30.31R
ORTONVILLE     CLOUDY    52  23  32 NE10      30.30R
MADISON        PTSUNNY   55  27  33 NE8G18    30.29R
WILLMAR        FAIR      54  27  35 E14G21    30.29S
$$
MNZ033>034-036-042>043-049>051-058-059-292000-
   Central Minnesota

CITY           SKY/WX    TMP DP  RH WIND       PRES   REMARKS
ST CLOUD       CLOUDY    52  23  32 NE10      30.29F
SAUK CENTRE    FAIR      51  26  37 NE10G16   30.30F
PAYNESVILLE    CLOUDY    53  24  32 NE13      30.29S
AITKIN         MOSUNNY   55  12  18 E5        30.29F
PINE RIVER     MOSUNNY   54  27  35 NW7       30.33S
BRAINERD       MOSUNNY   53  21  28 NE8       30.31F
STAPLES        MOSUNNY   54  18  24 CALM      30.30F
LONG PRAIRIE   FAIR      52  27  37 NE8       30.30F
LITTLE FALLS   MOSUNNY   52  19  28 NE6G17    30.30F
LITCHFIELD     MOSUNNY   54  27  35 NE9G18    30.28F
BUFFALO        CLOUDY    52  23  32 NE12      30.29S
MAPLE LAKE     CLOUDY    54  26  33 NE14      30.29S
HUTCHINSON     SUNNY     53  26  35 NE17G26   30.28R
$$
MNZ037-044-045-052-053-292000-
   East Central Minnesota

CITY           SKY/WX    TMP DP  RH WIND       PRES   REMARKS
PRINCETON      MOSUNNY   54  25  32 NE14G20   30.30F
MORA           MOSUNNY   52  21  30 N6        30.31F
CAMBRIDGE      CLOUDY    54  32  43 NE10      30.27F
RUSH CITY      MOSUNNY   54  22  29 NE10G18   30.29F
MOOSE LAKE     MOSUNNY   52  21  30 NE5       30.29F
HINCKLEY       FAIR      54  23  30 N12G18    30.29F
CLOQUET        SUNNY     50  16  25 NE6       30.32S
MCGREGOR       MOSUNNY   54  23  30 NE12G17   30.30F
$$
MNZ071>073-080-081-089-090-097-098-292000-
   Southwest Minnesota

CITY           SKY/WX    TMP DP  RH WIND       PRES   REMARKS
MONTEVIDEO     MOSUNNY   54  25  32 E12       30.29R
GRANITE FALLS  PTSUNNY   54  26  33 NE14      30.30R
CANBY          PTSUNNY   54  23  29 NE14G20   30.30R
MARSHALL       PTSUNNY   52  24  33 NE16G23   30.28R
REDWOOD FALLS  MOSUNNY   52  21  29 NE8G18    30.27R
OLIVIA         MOSUNNY   52  27  37 NE13G23   30.26S
PIPESTONE      MOSUNNY   52  10  19 E14G24    30.26R
WINDOM         CLOUDY    50  19  29 NE15G22   30.26R
WORTHINGTON    CLOUDY    48  21  34 NE21G26   30.26R
JACKSON        CLOUDY    46  27  46 NE14      30.26R
TRACY          CLOUDY    52  27  37 NE16G23   30.27R
SLAYTON        PTSUNNY   49  22  34 NE16      30.27R
$$
MNZ065>067-074>077-082>085-091>093-292000-
   South Central Minnesota

CITY           SKY/WX    TMP DP  RH WIND       PRES   REMARKS
MANKATO        PTSUNNY   50  26  39 E15       30.26R
NEW ULM        PTSUNNY   52  19  28 NE15      30.25R
ST JAMES       CLOUDY    50  25  37 NE15G21   30.27R
FAIRMONT       CLOUDY    48  27  44 E16G22    30.25R
GLENCOE        CLOUDY    53  29  39 NE10G17   30.27R
FARIBAULT      CLOUDY    52  27  37 NE10G18   30.25R
OWATONNA       CLOUDY    50  27  40 NE16G22   30.25R
WASECA         CLOUDY    50  28  43 NE15      30.26R
ALBERT LEA     CLOUDY    46  25  42 NE17G23   30.23R
$$
MNZ078>079-086>088-094>096-292000-
   Southeast Minnesota

CITY           SKY/WX    TMP DP  RH WIND       PRES   REMARKS
ROCHESTER      PTSUNNY   46  29  51 E17       30.24R
RED WING       CLOUDY    52  23  32 NE13G20   30.25S
STANTON        CLOUDY    52  27  38 NE15G22   30.25R
DODGE CENTER   CLOUDY    48  28  46 E16       30.24R
WINONA         CLOUDY    48  30  49 E8        30.26R
AUSTIN         CLOUDY    46  28  49 E15G21    30.23R
PRESTON        CLOUDY    45  27  50 NE15      30.23R
$$
ABBREVIATIONS USED IN REMARKS
   TC - TEMPERATURES IN CELSIUS
  WCI - WIND CHILL INDEX
   HX - HEAT INDEX
  VSB - VISIBILITY
$$



USA.gov is the U.S. government's official web portal to all federal, state and local government web resources and services.